User: anonymous   Login
Location: Unspecified
(0.0000°N, 0.0000°E)
Time: 11:58:03
(UTC+00:00)
Language:

STRAND 1 - Orbit

View from above orbital plane
View from above orbital plane
View from above satellite
View from above satellite

Ground track
Ground track

The orbit data is extracted from the following two-line orbital elements,

1 39090U 13009E   18203.53015473 +.00000021 +00000-0 +22751-4 0  9990
2 39090 098.5191 049.4491 0008966 185.0023 175.1075 14.35033802282877
Epoch (UTC): 22 July 2018 12:43:25
Eccentricity: 0.0008966
inclination: 98.5191°
perigee height: 768 km
apogee height: 781 km
right ascension of ascending node: 49.4491°
argument of perigee: 185.0023°
revolutions per day: 14.35033802
mean anomaly at epoch: 175.1075°
orbit number at epoch: 28287

The dashed part of the orbit path shows where the satellite is in the earth's shadow,  

DLR